PSLV R/B (43287 NORAD) Tracking and Keplerian Element Data

This shows tracking and keplerian element data for the satellite.

Feedback or suggestion? Click here.




ElementValue
Catalog43287
NamePSLV R/B
Epoch Orbit110
Epoch Day129.53931344
Epoch Year2018
RAAN102.4792
Inclination19.1459
Eccentricity0.60827
Argument of Perigee217.5533
Mean Anonmoly78.3668
Mean Motion3.9228106
Decay Rate1.193E-05
L11 43287U 18035B 18129.53931344 .00001193 00000-0 21397-3 0 9993
L22 43287 19.1459 102.4792 6082700 217.5533 78.3668 3.92281060 1100



Live tracking and technical data element details for PSLV R/B (NORAD 43287). PSLV R/B can be tracked NOW for your location showing map with azimuth and elevation plus other details from your city location.







IsCatalogInMostPopularTable: catalog: 43287, numindb: 490
Update: records affected: 1



GetName: 43287 PSLV R/B

Hit Count: updated at: Sat, 14 Mar 2026 02:45:46 GMT